User: anonymous   Login
Location: Wilsall
(45.9940°N, 110.6590°W)
Time: 04:27:44
(UTC-06:00)
Language:

GP-B - Orbit

View from above orbital plane
View from above orbital plane
View from above satellite
View from above satellite

Ground track
Ground track

The orbit data is extracted from the following two-line orbital elements,

1 28230U 04014A   15216.48634570  .00000362  00000-0  47728-4 0  9999
2 28230 089.8768 133.9439 0003386 088.4698 271.6912 14.78207536608238
Epoch (UTC): 04 August 2015 11:40:20
Eccentricity: 0.0003386
inclination: 89.8768°
perigee height: 632 km
apogee height: 637 km
right ascension of ascending node: 133.9439°
argument of perigee: 88.4698°
revolutions per day: 14.78207536
mean anomaly at epoch: 271.6912°
orbit number at epoch: 60823

The dashed part of the orbit path shows where the satellite is in the earth's shadow,  

DLR